Location: Newark
(35.9031°N, 139.7175°E)
Time: 13:35:54
(UTC+00:00)

Transit 2A - Pass Details

Date: 02 June 2020
Orbit: 592 x 967 km, 66.7° (Epoch: 06 July)

Event Time Altitude Azimuth Distance (km) Brightness Sun altitude
Rises 12:55:47 0° 329° (NNW) 3,594 10.8 -26.9°
Reaches altitude 10° 12:58:19 10° 326° (NW) 2,675 9.8 -27.1°
Maximum altitude 13:04:33 63° 247° (WSW) 1,069 6.6 -27.6°
Enters shadow 13:05:10 60° 219° (SW) 1,096 6.5 -27.7°
